Location: Lac Echo
(45.9375°N, 75.4580°W)
Time: 12:25:31
(UTC-04:00)

Amateur Radio Satellites - All Passes

Search period start: 31 October 2014 11:55
Search period end: 01 November 2014 11:55
Location: Lac Echo, 45.9375°N, 75.4580°W

Satellite Date Start Highest point End Downlink Frequencies (MHz)
Time Altitude Azimuth
Oscar 11 31 Oct 12:03:32 12:06:48 21° 296° (WNW) 12:10:03 145.825 FM, Beacon 2401.500 USB
SO-50 31 Oct 12:14:10 12:18:40 69° 309° (NW) 12:23:21 436.795 FM
ISS 31 Oct 12:17:59 12:21:13 46° 341° (NNW) 12:24:28 145.800 FM
FUNcube-1 31 Oct 12:19:35 12:23:16 30° 292° (WNW) 12:26:53 145.950 - 145.970 MHz USB
Uribyol 2 31 Oct 12:27:53 12:29:15 11° 53° (NE) 12:30:38 436.500 FM
AO-Echo 31 Oct 12:30:05 12:32:23 13° 55° (NE) 12:34:42 ?
ITAMSAT 1 31 Oct 12:35:09 12:37:07 12° 54° (NE) 12:39:04 435.822 SSB
KITSAT 1 31 Oct 12:39:11 12:47:04 54° 313° (NW) 12:54:59 435.175 FM
Oscar 19 31 Oct 12:43:39 12:48:04 30° 65° (ENE) 12:52:28 437.125 CW, 437.150 USB
JAS-1B 31 Oct 12:44:36 12:49:30 31° 62° (ENE) 12:54:31 435.800 - 435.900 CW/SSB
Sapphire 31 Oct 12:53:58 12:58:27 27° 251° (WSW) 13:02:56 437.095 MHz 1200 baud AX-25 AFSK
UOSAT-12 31 Oct 12:58:46 13:03:03 38° 118° (ESE) 13:07:26 437.025 FM, 437.400 FM
HO-68 31 Oct 13:13:06 13:14:20 11° 319° (NW) 13:15:33 435.675 MHz FM
PCSat 31 Oct 13:16:32 13:19:52 17° 255° (WSW) 13:23:12 145.825 MHz
AO-27 31 Oct 13:19:47 13:24:10 28° 63° (ENE) 13:28:34 436.795 MHz FM
Oscar 16 31 Oct 13:29:48 13:34:56 75° 73° (ENE) 13:40:05 437.025 USB, Beacon 2401.1428
Saudisat 1A 31 Oct 13:31:48 13:35:34 27° 40° (NE) 13:39:20 436.775 MHz
Gurwin Techsat 1B 31 Oct 13:35:22 13:39:19 22° 60° (ENE) 13:43:17 435.225 FM
TMSAT-1 31 Oct 13:42:11 13:45:49 19° 59° (ENE) 13:49:27 436.925 FM
ISS 31 Oct 13:55:25 13:58:24 29° 1° (N) 14:01:23 145.800 FM
SO-50 31 Oct 13:57:12 14:00:07 16° 330° (NNW) 14:03:05 436.795 FM
Uribyol 2 31 Oct 14:02:35 14:07:45 66° 72° (ENE) 14:12:57 436.500 FM
AO-Echo 31 Oct 14:05:16 14:10:16 81° 74° (ENE) 14:15:29 ?
AO-7 31 Oct 14:08:34 14:14:15 21° 46° (NE) 14:19:56 29.400 - 29.500 MHz
ITAMSAT 1 31 Oct 14:10:30 14:15:42 73° 73° (ENE) 14:20:56 435.822 SSB
Oscar 19 31 Oct 14:22:28 14:27:16 39° 262° (W) 14:32:06 437.125 CW, 437.150 USB
JAS-1B 31 Oct 14:34:48 14:40:08 40° 263° (W) 14:45:32 435.800 - 435.900 CW/SSB
KITSAT 1 31 Oct 14:38:28 14:44:29 22° 339° (NNW) 14:50:31 435.175 FM
UOSAT-12 31 Oct 14:38:59 14:43:15 34° 317° (NW) 14:47:36 437.025 FM, 437.400 FM
AO-27 31 Oct 14:58:30 15:03:28 44° 261° (W) 15:08:29 436.795 MHz FM
Saudisat 1A 31 Oct 15:11:05 15:15:22 49° 240° (WSW) 15:19:37 436.775 MHz
Oscar 16 31 Oct 15:11:55 15:14:51 15° 271° (W) 15:17:48 437.025 USB, Beacon 2401.1428
Gurwin Techsat 1B 31 Oct 15:13:37 15:18:51 61° 259° (W) 15:24:08 435.225 FM
JAS-2 31 Oct 15:14:37 15:16:19 11° 43° (NE) 15:18:03 435.800 - 435.900 CW/SSB, 435.910 FM
TMSAT-1 31 Oct 15:19:54 15:25:11 71° 257° (WSW) 15:30:31 436.925 FM
ISS 31 Oct 15:32:16 15:35:33 53° 21° (NNE) 15:38:50 145.800 FM
Uribyol 2 31 Oct 15:44:12 15:47:42 18° 270° (W) 15:51:12 436.500 FM
AO-Echo 31 Oct 15:47:12 15:49:44 14° 273° (W) 15:52:18 ?
ITAMSAT 1 31 Oct 15:52:33 15:55:44 16° 271° (W) 15:58:56 435.822 SSB
Uosat F 31 Oct 15:57:03 16:01:47 43° 68° (ENE) 16:06:33 435.120 FM
AO-7 31 Oct 15:57:31 16:05:45 75° 67° (ENE) 16:14:03 29.400 - 29.500 MHz
UOSAT-12 31 Oct 16:23:28 16:24:50 11° 340° (NNW) 16:26:12 437.025 FM, 437.400 FM
KITSAT 1 31 Oct 16:38:02 16:43:23 19° 10° (N) 16:48:44 435.175 FM
JAS-2 31 Oct 16:53:20 16:59:26 47° 65° (ENE) 17:06:18 435.800 - 435.900 CW/SSB, 435.910 FM
Hamsat 31 Oct 17:06:47 17:10:16 26° 67° (ENE) 17:13:45 145.90 MHz
ISS 31 Oct 17:09:09 17:12:08 30° 219° (SW) 17:15:06 145.800 FM
SO-50 31 Oct 17:24:06 17:25:39 11° 21° (NNE) 17:27:12 436.795 FM
Uosat F 31 Oct 17:36:33 17:40:44 26° 266° (W) 17:44:56 435.120 FM
AO-7 31 Oct 17:52:39 17:59:18 26° 267° (W) 18:06:01 29.400 - 29.500 MHz
OPAL 31 Oct 18:02:27 18:07:05 38° 100° (E) 18:11:40 ?
HO-68 31 Oct 18:25:35 18:25:49 10° 40° (NE) 18:26:03 435.675 MHz FM
KITSAT 1 31 Oct 18:34:09 18:41:32 37° 38° (NE) 18:48:52 435.175 FM
JAS-2 31 Oct 18:38:48 18:44:38 37° 267° (W) 18:51:11 435.800 - 435.900 CW/SSB, 435.910 FM
Hamsat 31 Oct 18:42:25 18:46:07 30° 264° (W) 18:49:51 145.90 MHz
SO-50 31 Oct 19:03:10 19:07:37 35° 43° (NE) 19:12:06 436.795 FM
SO-67 31 Oct 19:25:02 19:28:27 69° 259° (W) 19:31:54 435.3500 MHz FM
OPAL 31 Oct 19:41:35 19:45:51 30° 298° (WNW) 19:50:06 ?
RS-15 31 Oct 19:44:36 19:51:57 21° 99° (E) 19:59:14 29.354 - 29.394 USB, Beacon 29.352 USB
UOSAT-12 31 Oct 19:46:31 19:49:31 16° 30° (NNE) 19:52:30 437.025 FM, 437.400 FM
STRAND 1 31 Oct 19:58:49 20:04:00 73° 103° (ESE) 20:09:07 ?
AO-40 31 Oct 20:02:56 22:20:08 19° 118° (ESE) 23:30:34 Beacon 2401.320
HO-68 31 Oct 20:05:03 20:11:40 42° 62° (ENE) 20:18:18 435.675 MHz FM
KITSAT 1 31 Oct 20:29:32 20:37:35 71° 241° (WSW) 20:45:35 435.175 FM
SO-50 31 Oct 20:43:43 20:48:15 40° 242° (WSW) 20:52:47 436.795 FM
UKube-1 31 Oct 20:50:03 20:53:31 23° 64° (ENE) 20:56:59 145.840 MHz, 145.915 MHz
Oscar 10/S400 31 Oct 20:57:20 21:35:34 44° 202° (SSW) 04:19:22 145.825 - 145.975 CW/USB, Beacon 145.810 USB
ZACube-1 31 Oct 21:01:02 21:03:14 14° 60° (ENE) 21:05:24 437.345 MHz
Oscar 11 31 Oct 21:24:00 21:28:06 44° 71° (ENE) 21:32:13 145.825 FM, Beacon 2401.500 USB
UOSAT-12 31 Oct 21:25:49 21:30:33 67° 51° (NE) 21:35:12 437.025 FM, 437.400 FM
STRAND 1 31 Oct 21:39:15 21:42:37 18° 302° (WNW) 21:45:57 ?
FUNcube-1 31 Oct 21:41:42 21:45:41 31° 68° (ENE) 21:49:35 145.950 - 145.970 MHz USB
MaSat-1 31 Oct 21:50:34 21:53:42 24° 111° (ESE) 21:56:36 437.345 MHz
RS-15 31 Oct 21:51:30 22:02:27 81° 122° (ESE) 22:13:25 29.354 - 29.394 USB, Beacon 29.352 USB
HO-68 31 Oct 21:52:33 21:59:19 44° 261° (W) 22:06:10 435.675 MHz FM
UKube-1 31 Oct 22:25:25 22:29:30 39° 262° (W) 22:33:36 145.840 MHz, 145.915 MHz
KITSAT 1 31 Oct 22:27:25 22:31:32 15° 261° (W) 22:35:39 435.175 FM
ZACube-1 31 Oct 22:34:31 22:39:03 78° 257° (WSW) 22:43:31 437.345 MHz
Oscar 11 31 Oct 23:01:25 23:04:30 19° 268° (W) 23:07:37 145.825 FM, Beacon 2401.500 USB
UOSAT-12 31 Oct 23:07:05 23:10:12 18° 249° (WSW) 23:13:16 437.025 FM, 437.400 FM
FUNcube-1 31 Oct 23:18:07 23:22:02 29° 265° (W) 23:25:55 145.950 - 145.970 MHz USB
MaSat-1 31 Oct 23:25:45 23:29:01 28° 305° (NW) 23:31:59 437.345 MHz
RS-15 01 Nov 00:05:50 00:15:58 41° 329° (NNW) 00:26:14 29.354 - 29.394 USB, Beacon 29.352 USB
Oscar 16 01 Nov 01:39:47 01:43:41 22° 92° (E) 01:47:35 437.025 USB, Beacon 2401.1428
Sapphire 01 Nov 01:55:01 01:59:31 28° 109° (ESE) 02:04:03 437.095 MHz 1200 baud AX-25 AFSK
AO-Echo 01 Nov 02:10:38 02:14:52 24° 92° (E) 02:19:02 ?
JAS-1B 01 Nov 02:13:07 02:19:59 48° 100° (E) 02:28:04 435.800 - 435.900 CW/SSB
Uribyol 2 01 Nov 02:13:50 02:17:31 19° 91° (E) 02:21:10 436.500 FM
PCSat 01 Nov 02:15:52 02:20:58 44° 114° (ESE) 02:26:06 145.825 MHz
ITAMSAT 1 01 Nov 02:21:44 02:25:41 21° 92° (E) 02:29:36 435.822 SSB
RS-15 01 Nov 02:23:03 02:32:12 29° 4° (N) 02:41:33 29.354 - 29.394 USB, Beacon 29.352 USB
Oscar 19 01 Nov 02:31:04 02:36:09 60° 101° (ESE) 02:41:12 437.125 CW, 437.150 USB
AO-27 01 Nov 03:08:44 03:13:54 56° 101° (E) 03:19:00 436.795 MHz FM
Oscar 16 01 Nov 03:18:22 03:23:21 53° 290° (WNW) 03:28:19 437.025 USB, Beacon 2401.1428
Gurwin Techsat 1B 01 Nov 03:27:19 03:32:26 45° 99° (E) 03:37:30 435.225 FM
TMSAT-1 01 Nov 03:33:24 03:38:22 39° 97° (E) 03:43:17 436.925 FM
Sapphire 01 Nov 03:37:24 03:42:40 51° 309° (NW) 03:47:59 437.095 MHz 1200 baud AX-25 AFSK
OPAL 01 Nov 03:43:45 03:46:33 15° 55° (NE) 03:49:21 ?
AO-Echo 01 Nov 03:48:44 03:53:54 52° 290° (WNW) 03:59:01 ?
Uribyol 2 01 Nov 03:52:16 03:57:25 61° 289° (WNW) 04:02:30 436.500 FM
AO-7 01 Nov 03:57:33 04:03:23 20° 89° (E) 04:09:11 29.400 - 29.500 MHz
PCSat 01 Nov 03:59:33 04:04:30 35° 314° (NW) 04:09:28 145.825 MHz
ITAMSAT 1 01 Nov 04:00:25 04:05:31 55° 290° (WNW) 04:10:35 435.822 SSB
JAS-1B 01 Nov 04:04:07 04:10:30 41° 295° (WNW) 04:18:00 435.800 - 435.900 CW/SSB
Uosat F 01 Nov 04:05:24 04:06:04 10° 86° (E) 04:06:45 435.120 FM
Oscar 19 01 Nov 04:11:21 04:15:04 21° 299° (WNW) 04:18:47 437.125 CW, 437.150 USB
RS-15 01 Nov 04:37:28 04:48:05 48° 36° (NE) 04:59:03 29.354 - 29.394 USB, Beacon 29.352 USB
AO-27 01 Nov 04:49:00 04:53:02 23° 299° (WNW) 04:57:02 436.795 MHz FM
Gurwin Techsat 1B 01 Nov 05:07:44 05:12:11 28° 297° (WNW) 05:16:37 435.225 FM
TMSAT-1 01 Nov 05:13:31 05:18:11 32° 295° (WNW) 05:22:49 436.925 FM
OPAL 01 Nov 05:19:39 05:24:46 89° 254° (WSW) 05:29:50 ?
Saudisat 1A 01 Nov 05:20:13 05:23:41 23° 114° (ESE) 05:27:10 436.775 MHz
Sapphire 01 Nov 05:24:36 05:27:25 14° 331° (NNW) 05:30:14 437.095 MHz 1200 baud AX-25 AFSK
Uribyol 2 01 Nov 05:35:38 05:35:50 10° 308° (NW) 05:36:02 436.500 FM
STRAND 1 01 Nov 05:39:56 05:43:39 21° 60° (ENE) 05:47:23 ?
Uosat F 01 Nov 05:40:35 05:45:40 81° 104° (ESE) 05:50:42 435.120 FM
JAS-2 01 Nov 05:44:26 05:51:41 38° 93° (E) 05:58:40 435.800 - 435.900 CW/SSB, 435.910 FM
PCSat 01 Nov 05:48:12 05:49:38 11° 338° (NNW) 05:51:04 145.825 MHz
AO-7 01 Nov 05:48:52 05:57:15 89° 109° (ESE) 06:05:38 29.400 - 29.500 MHz
Hamsat 01 Nov 06:24:58 06:28:54 37° 97° (E) 06:32:50 145.90 MHz
RS-15 01 Nov 06:50:06 07:01:06 67° 242° (WSW) 07:12:35 29.354 - 29.394 USB, Beacon 29.352 USB
Saudisat 1A 01 Nov 06:58:45 07:02:59 47° 312° (NW) 07:07:16 436.775 MHz
OPAL 01 Nov 07:02:27 07:04:19 12° 270° (W) 07:06:12 ?
STRAND 1 01 Nov 07:17:18 07:22:23 62° 258° (WSW) 07:27:31 ?
Uosat F 01 Nov 07:20:49 07:23:48 16° 303° (WNW) 07:26:47 435.120 FM
JAS-2 01 Nov 07:29:16 07:36:51 54° 293° (WNW) 07:44:16 435.800 - 435.900 CW/SSB, 435.910 FM
MaSat-1 01 Nov 07:31:58 07:34:31 83° 67° (ENE) 07:36:52 437.345 MHz
AO-7 01 Nov 07:42:40 07:49:06 26° 310° (NW) 07:55:32 29.400 - 29.500 MHz
Hamsat 01 Nov 08:01:21 08:04:39 23° 294° (WNW) 08:07:58 145.90 MHz
SO-67 01 Nov 08:18:34 08:22:02 82° 284° (WNW) 08:25:28 435.3500 MHz FM
Saudisat 1A 01 Nov 08:41:50 08:43:38 12° 334° (NNW) 08:45:26 436.775 MHz
Sapphire 01 Nov 08:57:39 08:59:47 12° 25° (NNE) 09:01:55 437.095 MHz 1200 baud AX-25 AFSK
RS-15 01 Nov 09:05:18 09:11:16 16° 264° (W) 09:17:23 29.354 - 29.394 USB, Beacon 29.352 USB
KITSAT 1 01 Nov 09:11:35 09:13:59 12° 97° (E) 09:16:22 435.175 FM
JAS-2 01 Nov 09:16:28 09:20:12 14° 313° (NW) 09:23:56 435.800 - 435.900 CW/SSB, 435.910 FM
HO-68 01 Nov 09:17:17 09:23:40 33° 95° (E) 09:30:00 435.675 MHz FM
PCSat 01 Nov 09:18:41 09:21:56 16° 31° (NNE) 09:25:11 145.825 MHz
ISS 01 Nov 09:52:49 09:55:31 23° 138° (SE) 09:58:13 145.800 FM
UKube-1 01 Nov 10:11:05 10:14:53 29° 96° (E) 10:18:40 145.840 MHz, 145.915 MHz
ZACube-1 01 Nov 10:22:31 10:25:11 16° 91° (E) 10:27:49 437.345 MHz
Sapphire 01 Nov 10:39:37 10:44:46 41° 49° (NE) 10:49:52 437.095 MHz 1200 baud AX-25 AFSK
Oscar 11 01 Nov 10:44:56 10:49:14 65° 101° (ESE) 10:53:31 145.825 FM, Beacon 2401.500 USB
KITSAT 1 01 Nov 10:59:49 11:07:41 61° 116° (ESE) 11:15:36 435.175 FM
SO-50 01 Nov 11:00:44 11:04:53 38° 117° (ESE) 11:09:10 436.795 FM
PCSat 01 Nov 11:01:06 11:06:30 61° 54° (NE) 11:11:52 145.825 MHz
FUNcube-1 01 Nov 11:04:10 11:08:12 44° 98° (E) 11:12:09 145.950 - 145.970 MHz USB
HO-68 01 Nov 11:04:41 11:11:40 55° 294° (WNW) 11:18:36 435.675 MHz FM
ISS 01 Nov 11:28:40 11:31:58 64° 336° (NNW) 11:35:18 145.800 FM
UOSAT-12 01 Nov 11:43:05 11:44:04 11° 106° (ESE) 11:45:03 437.025 FM, 437.400 FM
UKube-1 01 Nov 11:47:12 11:51:03 31° 293° (WNW) 11:54:52 145.840 MHz, 145.915 MHz
